TimeCST,TemperatureF,Dew PointF,Humidity,Sea Level PressureIn,VisibilityMPH,Wind Direction,Wind SpeedMPH,Gust SpeedMPH,PrecipitationIn,Events,Conditions,WindDirDegrees,DateUTC
12:15 AM,8.6,-2.2,62,30.46,10.0,North,12.7,-,N/A,,Clear,360,2013-01-24 06:15:00
12:35 AM,8.6,-2.2,62,30.48,10.0,North,9.2,-,N/A,,Clear,350,2013-01-24 06:35:00
12:55 AM,8.6,-2.2,62,30.49,10.0,North,12.7,-,N/A,,Clear,10,2013-01-24 06:55:00
1:15 AM,6.8,-2.2,67,30.50,10.0,North,16.1,-,N/A,,Clear,360,2013-01-24 07:15:00
1:35 AM,6.8,-5.8,56,30.51,10.0,North,11.5,-,N/A,,Clear,360,2013-01-24 07:35:00
1:55 AM,6.8,-4.0,61,30.52,10.0,North,16.1,-,N/A,,Clear,360,2013-01-24 07:55:00
2:15 AM,6.8,-5.8,56,30.53,10.0,North,13.8,-,N/A,,Clear,360,2013-01-24 08:15:00
2:35 AM,5.0,-4.0,66,30.54,10.0,North,8.1,-,N/A,,Clear,10,2013-01-24 08:35:00
2:55 AM,5.0,-4.0,66,30.55,10.0,North,9.2,-,N/A,,Clear,10,2013-01-24 08:55:00
3:15 AM,5.0,-5.8,61,30.55,10.0,North,12.7,-,N/A,,Clear,10,2013-01-24 09:15:00
3:35 AM,5.0,-5.8,61,30.55,10.0,North,12.7,-,N/A,,Clear,10,2013-01-24 09:35:00
3:55 AM,3.2,-5.8,66,30.56,10.0,North,11.5,-,N/A,,Clear,10,2013-01-24 09:55:00
4:15 AM,3.2,-5.8,66,30.57,10.0,North,9.2,-,N/A,,Clear,10,2013-01-24 10:15:00
4:35 AM,3.2,-5.8,66,30.59,10.0,North,9.2,-,N/A,,Clear,360,2013-01-24 10:35:00
4:55 AM,3.2,-5.8,66,30.58,10.0,NNE,9.2,-,N/A,,Clear,20,2013-01-24 10:55:00
5:15 AM,3.2,-5.8,66,30.58,10.0,NNE,12.7,-,N/A,,Clear,20,2013-01-24 11:15:00
5:35 AM,3.2,-5.8,66,30.60,10.0,NNE,10.4,-,N/A,,Clear,20,2013-01-24 11:35:00
5:55 AM,3.2,-5.8,66,30.58,10.0,NNE,11.5,-,N/A,,Clear,20,2013-01-24 11:55:00
6:15 AM,3.2,-7.6,61,30.60,10.0,NNE,9.2,-,N/A,,Clear,30,2013-01-24 12:15:00
6:35 AM,3.2,-5.8,66,30.60,10.0,NNE,8.1,-,N/A,,Clear,20,2013-01-24 12:35:00
6:55 AM,3.2,-5.8,66,30.60,10.0,NNE,9.2,-,N/A,,Clear,20,2013-01-24 12:55:00
7:15 AM,3.2,-7.6,61,30.61,10.0,NNE,6.9,-,N/A,,Clear,30,2013-01-24 13:15:00
7:35 AM,3.2,-5.8,66,30.61,10.0,NNE,8.1,-,N/A,,Clear,20,2013-01-24 13:35:00
7:55 AM,3.2,-5.8,66,30.64,10.0,NNE,8.1,-,N/A,,Clear,20,2013-01-24 13:55:00
8:15 AM,5.0,-5.8,61,30.64,10.0,NE,8.1,-,N/A,,Clear,40,2013-01-24 14:15:00
8:35 AM,5.0,-5.8,61,30.65,10.0,NE,9.2,-,N/A,,Clear,50,2013-01-24 14:35:00
8:55 AM,6.8,-5.8,56,30.66,10.0,ENE,9.2,-,N/A,,Clear,70,2013-01-24 14:55:00
9:15 AM,6.8,-7.6,52,30.67,10.0,ENE,6.9,-,N/A,,Clear,60,2013-01-24 15:15:00
9:35 AM,6.8,-5.8,56,30.66,10.0,NE,9.2,-,N/A,,Clear,40,2013-01-24 15:35:00
9:55 AM,8.6,-5.8,52,30.65,10.0,East,8.1,-,N/A,,Clear,80,2013-01-24 15:55:00
10:15 AM,8.6,-4.0,57,30.64,10.0,East,9.2,-,N/A,,Clear,80,2013-01-24 16:15:00
10:35 AM,8.6,-5.8,52,30.64,10.0,ENE,8.1,-,N/A,,Clear,70,2013-01-24 16:35:00
10:55 AM,10.4,-5.8,48,30.64,10.0,East,8.1,-,N/A,,Clear,90,2013-01-24 16:55:00
11:15 AM,10.4,-2.2,57,30.62,10.0,East,6.9,-,N/A,,Clear,90,2013-01-24 17:15:00
11:35 AM,12.2,-4.0,48,30.61,10.0,ENE,5.8,-,N/A,,Clear,70,2013-01-24 17:35:00
11:55 AM,12.2,-2.2,53,30.61,10.0,ESE,5.8,-,N/A,,Clear,120,2013-01-24 17:55:00
12:15 PM,12.2,-2.2,53,30.61,10.0,ENE,5.8,-,N/A,,Clear,70,2013-01-24 18:15:00
12:35 PM,14.0,-2.2,49,30.59,10.0,ENE,6.9,-,N/A,,Clear,70,2013-01-24 18:35:00
12:55 PM,14.0,-2.2,49,30.59,10.0,East,4.6,-,N/A,,Clear,80,2013-01-24 18:55:00
1:15 PM,15.8,-2.2,45,30.58,10.0,East,4.6,-,N/A,,Clear,100,2013-01-24 19:15:00
1:35 PM,15.8,-2.2,45,30.56,10.0,East,3.5,-,N/A,,Clear,100,2013-01-24 19:35:00
1:55 PM,17.6,-2.2,42,30.55,10.0,East,9.2,-,N/A,,Clear,90,2013-01-24 19:55:00
2:15 PM,17.6,-2.2,42,30.54,10.0,SE,6.9,-,N/A,,Clear,140,2013-01-24 20:15:00
2:35 PM,17.6,-2.2,42,30.54,10.0,ESE,10.4,-,N/A,,Clear,120,2013-01-24 20:35:00
2:55 PM,17.6,-2.2,42,30.53,10.0,ESE,8.1,-,N/A,,Clear,110,2013-01-24 20:55:00
3:15 PM,17.6,-2.2,42,30.51,10.0,SE,9.2,-,N/A,,Clear,130,2013-01-24 21:15:00
3:35 PM,19.4,-2.2,39,30.50,10.0,ESE,9.2,-,N/A,,Clear,110,2013-01-24 21:35:00
3:55 PM,17.6,-2.2,42,30.50,10.0,ESE,9.2,-,N/A,,Clear,120,2013-01-24 21:55:00
4:15 PM,17.6,-0.4,45,30.49,10.0,ESE,10.4,-,N/A,,Clear,110,2013-01-24 22:15:00
4:35 PM,17.6,-0.4,45,30.48,10.0,ESE,9.2,-,N/A,,Clear,120,2013-01-24 22:35:00
4:55 PM,17.6,-0.4,45,30.47,10.0,ESE,9.2,-,N/A,,Clear,110,2013-01-24 22:55:00
5:15 PM,17.6,-0.4,45,30.46,10.0,ESE,8.1,-,N/A,,Clear,110,2013-01-24 23:15:00
5:35 PM,19.4,-0.4,42,30.44,10.0,ESE,11.5,-,N/A,,Clear,120,2013-01-24 23:35:00
5:55 PM,19.4,-0.4,42,30.45,10.0,ESE,10.4,-,N/A,,Clear,120,2013-01-24 23:55:00
6:15 PM,19.4,1.4,46,30.44,10.0,SSE,12.7,-,N/A,,Clear,150,2013-01-25 00:15:00
6:35 PM,19.4,1.4,46,30.43,10.0,SE,9.2,-,N/A,,Clear,140,2013-01-25 00:35:00
6:55 PM,19.4,3.2,49,30.43,10.0,SSE,10.4,-,N/A,,Clear,150,2013-01-25 00:55:00
7:15 PM,19.4,3.2,49,30.42,10.0,SE,8.1,-,N/A,,Clear,140,2013-01-25 01:15:00
7:35 PM,19.4,3.2,49,30.41,10.0,SE,6.9,-,N/A,,Clear,140,2013-01-25 01:35:00
7:55 PM,19.4,3.2,49,30.40,10.0,ESE,6.9,-,N/A,,Clear,120,2013-01-25 01:55:00
8:15 PM,19.4,5.0,54,30.39,10.0,East,6.9,-,N/A,,Clear,100,2013-01-25 02:15:00
8:35 PM,19.4,5.0,54,30.37,10.0,ESE,9.2,-,N/A,,Clear,110,2013-01-25 02:35:00
8:55 PM,19.4,6.8,58,30.37,10.0,ESE,9.2,-,N/A,,Clear,110,2013-01-25 02:55:00
9:15 PM,19.4,6.8,58,30.38,10.0,ESE,8.1,-,N/A,,Clear,110,2013-01-25 03:15:00
9:35 PM,19.4,6.8,58,30.36,10.0,SE,11.5,-,N/A,,Scattered Clouds,140,2013-01-25 03:35:00
9:55 PM,21.2,5.0,50,30.35,10.0,SSE,11.5,-,N/A,,Partly Cloudy,150,2013-01-25 03:55:00
10:15 PM,21.2,3.2,46,30.34,10.0,SSE,13.8,17.3,N/A,,Partly Cloudy,150,2013-01-25 04:15:00
10:35 PM,21.2,5.0,50,30.33,10.0,SSE,13.8,-,N/A,,Partly Cloudy,150,2013-01-25 04:35:00
10:55 PM,21.2,5.0,50,30.33,10.0,SSE,12.7,-,N/A,,Mostly Cloudy,150,2013-01-25 04:55:00
11:15 PM,21.2,5.0,50,30.33,10.0,SSE,12.7,-,N/A,,Scattered Clouds,150,2013-01-25 05:15:00
11:35 PM,21.2,5.0,50,30.32,10.0,SSE,15.0,-,N/A,,Partly Cloudy,150,2013-01-25 05:35:00
11:55 PM,21.2,5.0,50,30.30,10.0,SE,15.0,-,N/A,,Clear,140,2013-01-25 05:55:00